Location: Quedlinburg
(51.7921°N, 11.1414°E)
Time: 07:27:13
(UTC+02:00)

RS-44 - Pass Details

Date: 15 March 2026
Orbit: 1175 x 1510 km, 82.5° (Epoch: 13 April)

Event Time Altitude Azimuth Distance (km) Brightness Sun altitude
Rises 18:51:55 0° 266° (W) 4,119 ? -5.8°
Reaches altitude 10° 18:56:36 10° 293° (WNW) 3,213 ? -6.5°
Maximum altitude 18:59:49 13° 319° (NW) 3,036 ? -7.0°
Drops below altitude 10° 19:03:08 10° 345° (NNW) 3,313 ? -7.5°
Sets 19:08:11 0° 12° (NNE) 4,370 ? -8.3°
